[[{"header":{"parameterUnit":"m.s-1","parameterCategory":1,"la1":30.2991,"la2":30.254,"lo1":-89.0895,"lo2":-89.0444,"dy":0.0017,"dx":0.0017,"nx":28,"ny":28,"refTime":"2024-05-08T03:00:00:Z","depth":0,"parameterNumber":2,"parameterNumberName":"U-component_of_WINDS"},"data":[0,0,0,0,0,0,0,0,0,0,0,0,0,0,0,0,0,0,0,0,0,0,0,0,0,0,0,0,0,0,0,0,0,0,0,0,0,0,0,0,0,0,0,0,0,0,0,0,0,0,0,0,0,0,0,0,0,0,-1.4161,-1.4162,0,-1.4234,-1.4235,-1.4235,-1.4248,-1.4247,-1.4247,-1.4246,-1.4324,-1.4326,-1.4329,0,0,0,0,0,0,0,0,0,0,0,0,0,-1.4037,-1.404,-1.4161,-1.4162,-1.4163,-1.4234,-1.4235,-1.4236,-1.4248,-1.4247,-1.4247,-1.4246,-1.4323,-1.4326,-1.4329,0,0,0,0,0,0,0,0,0,0,0,0,0,-1.4099,-1.404,-1.4161,-1.4178,-1.418,-1.4233,-1.4235,-1.4236,-1.4248,-1.4247,-1.4246,-1.4246,-1.4322,-1.4326,-1.4329,-1.4373,0,0,-1.4342,-1.4343,0,0,0,0,0,0,0,0,-1.4095,-1.4103,-1.4174,-1.4176,-1.4179,-1.4231,-1.4219,-1.4282,-1.4249,-1.4222,-1.4246,-1.4245,-1.4294,-1.43,-1.4316,-1.4376,-1.4379,-1.4342,-1.4344,-1.4346,-1.4347,0,0,0,0,0,0,0,-1.4091,-1.41,-1.419,-1.4175,-1.4178,-1.4183,-1.419,-1.4231,-1.4262,-1.4225,-1.4226,-1.4234,-1.4295,-1.4312,-1.4318,-1.4381,-1.4342,-1.4345,-1.4348,-1.4349,-1.4482,-1.4483,0,0,0,0,0,0,-1.4083,-1.4097,-1.4188,-1.4192,-1.4134,-1.4186,-1.4194,-1.4215,-1.4262,-1.4268,-1.4235,-1.4234,-1.4305,-1.4313,-1.432,-1.4375,-1.4346,-1.435,-1.4352,-1.4481,-1.4483,-1.4484,0,0,0,0,0,0,-1.408,-1.4091,-1.4185,-1.4145,-1.4157,-1.4189,-1.4212,-1.4217,-1.4234,-1.427,-1.4276,-1.4246,-1.4305,-1.4315,-1.436,-1.4378,-1.4351,-1.4355,-1.448,-1.4482,-1.4483,-1.4484,0,0,0,0,0,0,-1.4077,-1.409,-1.4106,-1.4145,-1.4159,-1.4222,-1.4213,-1.4219,-1.424,-1.4241,-1.4282,-1.4288,-1.4305,-1.4354,-1.4364,-1.4383,-1.4358,-1.4478,-1.4481,-1.4483,-1.4483,-1.4486,-1.4488,0,0,0,0,0,-1.4072,-1.4103,-1.4106,-1.4117,-1.4179,-1.4222,-1.4231,-1.4249,-1.4242,-1.4259,-1.4282,-1.4286,-1.4374,-1.4358,-1.437,-1.439,-1.4477,-1.448,-1.4483,-1.4481,-1.4485,-1.4488,0,0,0,0,0,0,-1.4066,-1.4109,-1.4113,-1.4157,-1.4186,-1.4224,-1.4246,-1.4252,-1.4285,-1.4284,-1.4306,-1.4315,-1.436,-1.4379,-1.4361,-1.4435,-1.4425,-1.443,-1.4421,-1.4425,-1.4427,-1.4422,-1.4361,0,0,0,0,0,-1.407,-1.41,-1.4136,-1.4172,-1.4186,-1.4214,-1.4233,-1.4245,-1.4277,-1.4289,-1.4316,-1.4347,-1.4382,-1.4404,-1.4438,-1.4486,-1.4496,-1.4506,-1.4508,-1.4511,-1.4515,-1.4543,-1.4548,-1.4492,-1.4492,-1.4492,0,0,-1.4078,-1.4105,-1.4123,-1.4172,-1.4195,-1.4228,-1.4224,-1.4258,-1.4283,-1.4295,-1.4339,-1.4359,-1.4396,-1.4443,-1.4465,-1.4461,-1.4533,-1.4514,-1.4515,-1.4519,-1.4546,-1.4552,-1.4556,-1.4494,-1.4494,-1.4494,0,0,-1.4109,-1.4132,-1.4165,-1.4189,-1.4225,-1.4244,-1.4252,-1.429,-1.4304,-1.4348,-1.4358,-1.4389,-1.4447,-1.4474,-1.4495,-1.4538,-1.4544,-1.4548,-1.4563,-1.4591,-1.4595,-1.4599,-1.4616,-1.4621,-1.4552,-1.4552,-1.4552,0,-1.4115,-1.4164,-1.4182,-1.4216,-1.4238,-1.4249,-1.4284,-1.4307,-1.4352,-1.4368,-1.4362,-1.4438,-1.4463,-1.4517,-1.4528,-1.4544,-1.4555,-1.4544,-1.4593,-1.4597,-1.4601,-1.4617,-1.4623,-1.4553,-1.4553,-1.4553,-1.4553,0,-1.417,-1.4203,-1.4226,-1.4269,-1.4293,-1.4328,-1.4352,-1.4375,-1.4385,-1.4405,-1.4451,-1.4482,-1.4523,-1.4536,-1.4547,-1.4592,-1.4589,-1.4588,-1.4578,-1.4606,-1.4622,-1.4628,-1.4553,-1.4553,-1.4553,-1.4553,0,0,-1.4199,-1.4252,-1.426,-1.4281,-1.4322,-1.4349,-1.4385,-1.4424,-1.4444,-1.4476,-1.4507,-1.4557,-1.4557,-1.4581,-1.4595,-1.4618,-1.4652,-1.4615,-1.4616,-1.4622,-1.4707,-1.4708,-1.4714,-1.4657,-1.4658,-1.4659,-1.4704,0,-1.4236,-1.4299,-1.4317,-1.437,-1.4402,-1.4414,-1.4446,-1.4475,-1.4494,-1.4526,-1.4548,-1.4584,-1.458,-1.4594,-1.4619,-1.4643,-1.467,-1.464,-1.4688,-1.4689,-1.4679,-1.4722,-1.4723,-1.4764,-1.471,-1.4711,-1.4712,0,-1.4288,-1.432,-1.4376,-1.4414,-1.4429,-1.4456,-1.4495,-1.4524,-1.4559,-1.4571,-1.4598,-1.461,-1.465,-1.4638,-1.4693,-1.4673,-1.4693,-1.4709,-1.4711,-1.4716,-1.4702,-1.473,-1.4777,-1.4784,-1.4721,-1.472,-1.472,0,-1.4305,-1.4362,-1.4404,-1.4421,-1.4466,-1.4485,-1.4506,-1.4539,-1.4562,-1.4596,-1.4612,-1.465,-1.4672,-1.4702,-1.4724,-1.4713,-1.4779,-1.4768,-1.4792,-1.4791,-1.4805,-1.4804,-1.4857,-1.4817,-1.4817,-1.4817,-1.4817,0,-1.4345,-1.438,-1.4412,-1.4438,-1.4477,-1.4498,-1.4537,-1.4558,-1.4588,-1.4619,-1.4632,-1.4661,-1.4689,-1.4722,-1.474,-1.4785,-1.4794,-1.4806,-1.4811,-1.4806,-1.4804,-1.482,-1.4818,-1.4819,-1.4818,-1.4818,-1.4818,0,-1.4371,-1.4394,-1.444,-1.4479,-1.449,-1.4518,-1.4552,-1.4579,-1.4598,-1.4638,-1.4648,-1.468,-1.4721,-1.4746,-1.4797,-1.4809,-1.4858,-1.4861,-1.4846,-1.4848,-1.4871,-1.4869,-1.4937,-1.4947,-1.4899,-1.4899,-1.49,0,-1.4396,-1.4422,-1.4464,-1.4486,-1.4506,-1.454,-1.4563,-1.4586,-1.461,-1.4652,-1.4674,-1.4715,-1.4748,-1.4812,-1.4841,-1.4881,-1.4886,-1.4907,-1.4892,-1.4886,-1.4887,-1.4886,-1.4889,-1.4909,-1.491,-1.491,-1.491,0,-1.4437,-1.4447,-1.448,-1.4517,-1.4545,-1.4576,-1.4606,-1.4623,-1.4652,-1.4679,-1.4719,-1.4745,-1.4798,-1.4839,-1.4881,-1.4904,-1.4913,-1.4915,-1.4923,-1.4918,-1.4908,-1.4915,-1.4854,-1.4913,-1.4913,-1.4913,-1.4913,-1.4912,-1.4464,-1.4489,-1.4522,-1.4559,-1.4584,-1.4613,-1.464,-1.4663,-1.4697,-1.4741,-1.4753,-1.4796,-1.4831,-1.4889,-1.4912,-1.4948,-1.4945,-1.4956,-1.4959,-1.4961,-1.4962,-1.4902,-1.4955,-1.4955,-1.4955,-1.4955,-1.4955,0,-1.4507,-1.453,-1.4563,-1.4605,-1.4635,-1.4639,-1.4674,-1.4699,-1.4736,-1.4768,-1.4801,-1.4849,-1.4889,-1.4921,-1.4962,-1.4984,-1.499,-1.4995,-1.4994,-1.4999,-1.4962,-1.4951,-1.499,-1.499,-1.499,-1.499,-1.499,-1.499,-1.4533,-1.4576,-1.459,-1.4646,-1.4669,-1.471,-1.473,-1.4757,-1.4783,-1.4835,-1.4868,-1.4888,-1.4921,-1.4966,-1.5003,-1.5012,-1.5027,-1.5032,-1.5041,-1.5005,-1.5002,-1.4998,-1.4989,-1.5034,-1.5034,-1.5076,-1.5076,-1.5077]},{"header":{"parameterUnit":"m.s-1","parameterCategory":1,"la1":30.2991,"la2":30.254,"lo1":-89.0895,"lo2":-89.0444,"dy":0.0017,"dx":0.0017,"nx":28,"ny":28,"refTime":"2024-05-08T03:00:00:Z","depth":0,"parameterNumber":3,"parameterNumberName":"V-component_of_WINDS"},"data":[0,0,0,0,0,0,0,0,0,0,0,0,0,0,0,0,0,0,0,0,0,0,0,0,0,0,0,0,0,0,0,0,0,0,0,0,0,0,0,0,0,0,0,0,0,0,0,0,0,0,0,0,0,0,0,0,0,0,5.6756,5.6757,0,5.6833,5.6834,5.6835,5.6786,5.6784,5.6781,5.6779,5.6853,5.6857,5.6861,0,0,0,0,0,0,0,0,0,0,0,0,0,5.6563,5.6567,5.6756,5.6757,5.6758,5.6833,5.6834,5.6835,5.6786,5.6784,5.6781,5.6778,5.6851,5.6856,5.6861,0,0,0,0,0,0,0,0,0,0,0,0,0,5.6644,5.6568,5.6756,5.6743,5.6743,5.6833,5.6834,5.6835,5.6787,5.6784,5.678,5.6777,5.685,5.6856,5.6862,5.6967,0,0,5.688,5.6883,0,0,0,0,0,0,0,0,5.664,5.6651,5.6744,5.6744,5.6744,5.6797,5.6793,5.6879,5.6788,5.677,5.6779,5.6775,5.6836,5.6843,5.6865,5.6971,5.6974,5.6881,5.6885,5.6887,5.6889,0,0,0,0,0,0,0,5.6634,5.6648,5.6786,5.6745,5.6745,5.6732,5.674,5.6809,5.6821,5.6771,5.6768,5.6778,5.6836,5.6859,5.6866,5.6975,5.6881,5.6886,5.689,5.6892,5.7171,5.7174,0,0,0,0,0,0,5.663,5.6643,5.6784,5.6789,5.6683,5.6738,5.6747,5.6783,5.682,5.6823,5.6781,5.6775,5.6851,5.6859,5.6869,5.6995,5.6887,5.6893,5.6896,5.7167,5.7172,5.7176,0,0,0,0,0,0,5.6626,5.6643,5.6781,5.6715,5.6732,5.6745,5.6786,5.6786,5.681,5.6828,5.6829,5.6803,5.6848,5.686,5.6943,5.6997,5.6896,5.6901,5.7163,5.7168,5.7174,5.7248,0,0,0,0,0,0,5.6621,5.6642,5.6683,5.6717,5.6736,5.6856,5.6789,5.679,5.6821,5.6815,5.6849,5.6851,5.6847,5.6935,5.695,5.7003,5.6906,5.7158,5.7165,5.7172,5.7241,5.7255,5.7268,0,0,0,0,0,5.6614,5.67,5.6686,5.6703,5.6788,5.6859,5.687,5.6864,5.6826,5.6867,5.6878,5.685,5.6989,5.6944,5.696,5.7016,5.7154,5.7163,5.7171,5.7235,5.7252,5.7267,0,0,0,0,0,0,5.6671,5.6704,5.6689,5.6788,5.6821,5.6851,5.6902,5.6883,5.6927,5.6919,5.6909,5.6917,5.7004,5.7018,5.6967,5.712,5.7065,5.7077,5.7108,5.7125,5.7138,5.7133,5.6911,0,0,0,0,0,5.6695,5.6752,5.6777,5.6862,5.688,5.6889,5.6919,5.6913,5.6946,5.6959,5.6976,5.7009,5.7059,5.7093,5.714,5.7243,5.7249,5.7289,5.7303,5.7314,5.7324,5.7379,5.7398,5.7203,5.7203,5.7203,0,0,5.6745,5.6771,5.6807,5.6875,5.69,5.6957,5.6901,5.6964,5.7006,5.6968,5.7048,5.7062,5.7097,5.7191,5.7233,5.7205,5.738,5.7325,5.7333,5.7338,5.739,5.7408,5.7425,5.7209,5.7208,5.7207,0,0,5.6866,5.6892,5.6965,5.6992,5.7032,5.7037,5.7055,5.7087,5.7096,5.7177,5.7149,5.7199,5.7286,5.7313,5.7337,5.747,5.7445,5.7485,5.7556,5.761,5.7625,5.7638,5.7685,5.7702,5.7496,5.7496,5.7496,0,5.6923,5.7011,5.7005,5.7072,5.7102,5.7072,5.7146,5.7172,5.7224,5.7245,5.7214,5.7324,5.7346,5.7445,5.7477,5.7498,5.7518,5.7481,5.7624,5.7637,5.7649,5.7694,5.7712,5.75,5.75,5.7499,5.7499,0,5.7079,5.714,5.7194,5.7248,5.7284,5.7354,5.7358,5.7395,5.7386,5.7394,5.7476,5.7501,5.7553,5.7576,5.7566,5.7674,5.7656,5.7625,5.7569,5.7673,5.7714,5.7731,5.7507,5.7505,5.7504,5.7503,0,0,5.7236,5.7287,5.7307,5.7331,5.7373,5.7419,5.7487,5.7541,5.7573,5.761,5.7666,5.7741,5.7713,5.7741,5.7734,5.7781,5.7885,5.7744,5.7745,5.7769,5.8004,5.8028,5.8048,5.7869,5.7872,5.7875,5.8001,0,5.736,5.7481,5.7478,5.759,5.7646,5.7619,5.7678,5.7709,5.7719,5.7766,5.7776,5.783,5.7788,5.7805,5.7851,5.7862,5.7931,5.7853,5.792,5.7922,5.7912,5.8069,5.8094,5.8212,5.8018,5.802,5.8022,0,5.752,5.7565,5.7682,5.7717,5.774,5.7793,5.7842,5.7889,5.7923,5.7926,5.7959,5.7945,5.8012,5.7956,5.8048,5.7995,5.8022,5.8032,5.8037,5.8042,5.7978,5.8079,5.825,5.8268,5.8048,5.8046,5.8044,0,5.7623,5.7712,5.7795,5.7816,5.7858,5.7896,5.7915,5.7946,5.7979,5.8021,5.8041,5.809,5.8117,5.8154,5.8153,5.8112,5.8247,5.819,5.8251,5.8251,5.828,5.8278,5.8457,5.8298,5.8298,5.8297,5.8297,0,5.7761,5.7834,5.7842,5.7892,5.7973,5.7969,5.8049,5.8063,5.8092,5.8144,5.8123,5.8171,5.8167,5.8216,5.8215,5.8292,5.8304,5.8308,5.8307,5.831,5.8309,5.8327,5.8319,5.8302,5.8301,5.83,5.8299,0,5.789,5.7898,5.7986,5.8019,5.8029,5.8087,5.8114,5.8162,5.817,5.8236,5.8251,5.8263,5.832,5.8323,5.8387,5.8386,5.848,5.847,5.8469,5.8467,5.8528,5.8522,5.8724,5.875,5.8575,5.8576,5.8578,0,5.7977,5.8033,5.8073,5.8107,5.8129,5.8184,5.8217,5.8215,5.8251,5.8295,5.8337,5.8392,5.8436,5.8527,5.8541,5.859,5.858,5.8648,5.8588,5.8589,5.8581,5.8578,5.8583,5.866,5.8662,5.8663,5.8664,0,5.8131,5.8133,5.8183,5.8235,5.8276,5.8316,5.8353,5.8382,5.8384,5.8425,5.8484,5.8518,5.8585,5.8639,5.8688,5.8705,5.8685,5.8684,5.87,5.8704,5.8701,5.8703,5.8501,5.8679,5.8677,5.8676,5.8676,5.8675,5.8242,5.829,5.8326,5.8383,5.8411,5.8447,5.8493,5.8508,5.8557,5.8613,5.8608,5.8673,5.8706,5.8769,5.8791,5.8841,5.8818,5.8842,5.8848,5.8854,5.886,5.8694,5.885,5.8849,5.8849,5.8848,5.8848,0,5.8395,5.8417,5.8469,5.8523,5.8567,5.8547,5.8587,5.8625,5.8683,5.8716,5.8761,5.8828,5.8881,5.8899,5.8951,5.8987,5.8979,5.9,5.8997,5.9002,5.8878,5.8859,5.9006,5.9006,5.9006,5.9006,5.9006,5.9006,5.8479,5.8561,5.8567,5.8662,5.8683,5.8748,5.8773,5.8805,5.8832,5.8909,5.8953,5.8966,5.8993,5.9046,5.9094,5.9098,5.9117,5.9142,5.9143,5.9026,5.901,5.8995,5.8977,5.9147,5.9147,5.9262,5.9263,5.9264]}]]